User: anonymous   Login
Location: Unspecified
(0.0000°N, 0.0000°E)
Time: 22:51:59
(UTC+00:00)
Language:

GOES 4 - Orbit

View from above orbital plane
View from above orbital plane
View from above satellite
View from above satellite

Ground track
Ground track

The orbit data is extracted from the following two-line orbital elements,

1 11964U 80074A   17112.31886707 +.00000032 +00000-0 +00000-0 0  9997
2 11964 014.2597 335.5006 0033314 010.6922 192.4721 00.99229978094461
Epoch (UTC): 22 April 2017 07:39:10
Eccentricity: 0.0033314
inclination: 14.2597°
perigee height: 35939 km
apogee height: 36222 km
right ascension of ascending node: 335.5006°
argument of perigee: 10.6922°
revolutions per day: 0.99229978
mean anomaly at epoch: 192.4721°
orbit number at epoch: 9446

The dashed part of the orbit path shows where the satellite is in the earth's shadow,  

DLR